Regional Weather Roundup
Issued by NWS

Home | Current Version | Previous Version | Text Only | Print | Product List | Glossary On
Versions: 1 2 3 4 5 6 7 8 9 10 11 12 13 14 15 16 17 18 19 20 21 22 23 24 25 26 27 28 29 30 31 32 33 34 35 36 37 38 39 40 41 42 43 44 45 46 47 48 49 50
000
ASUS45 KBOI 272210
RWRID
WEATHER ROUNDUP FOR IDAHO
NATIONAL WEATHER SERVICE BOISE ID
300 PM MST SAT DEC 27 2014

NOTE: "FAIR" INDICATES FEW OR NO CLOUDS BELOW 12000 FEET
WITH NO SIGNIFICANT WEATHER AND/OR OBSTRUCTIONS TO VISIBILITY

IDZ012-014-272300-
SOUTHWEST IDAHO


CITY           SKY/WX    TMP DP  RH WIND       PRES   REMARKS
BOISE          CLOUDY    32  20  61 SE10      30.25F WCI  24
CALDWELL       CLOUDY    34  19  55 E8        30.28F WCI  27
MOUNTAIN HOME  CLOUDY    34  23  65 E10       30.25F WCI  26
$$

IDZ016-017-272300-
SOUTHCENTRAL IDAHO


CITY           SKY/WX    TMP DP  RH WIND       PRES   REMARKS
BURLEY         CLOUDY    29  16  58 S15       30.23S WCI  18
JEROME         CLOUDY    29  19  66 CALM      30.24F
TWIN FALLS     CLOUDY    33  17  51 S13       30.23F WCI  24
$$

IDZ019>023-272300-
SOUTHEAST IDAHO


CITY           SKY/WX    TMP DP  RH WIND       PRES   REMARKS
IDAHO FALLS    CLOUDY    17  13  84 CALM      30.22F FOG
POCATELLO      CLOUDY    28  18  66 SW9       30.24F WCI  19
REXBURG        CLOUDY    16  14  92 W6        30.21S WCI   7
$$

IDZ006-010-011-018-031-032-272300-
CENTRAL IDAHO MOUNTAINS


CITY           SKY/WX    TMP DP  RH WIND       PRES   REMARKS
MCCALL         LGT SNOW  19  15  84 CALM      30.13F VSB 3/4
HAILEY         PTSUNNY   19   7  58 CALM      30.18F
STANLEY          N/A      9   0  67 CALM      30.12F
SALMON         CLOUDY    23   9  54 CALM      30.17S
CHALLIS        CLOUDY    16   6  65 CALM      30.15F
$$

IDZ002-004-006-007-026-272300-
NORTHERN IDAHO


CITY           SKY/WX    TMP DP  RH WIND       PRES   REMARKS
LEWISTON       CLOUDY    39  28  64 S16       30.06F WCI  30
LOWELL           N/A     33  30  88 W5        30.18F WCI  29
COEUR D`ALENE  CLOUDY    32  30  93 S13       29.98F WCI  22
MULLAN PASS    SNOW      23  19  85 VRB5      29.89F VSB 1/2 WCI  17
$$



USA.gov is the U.S. government's official web portal to all federal, state and local government web resources and services.